Cahokia, IL

4:27 AM CDT on September 18, 2019 (GMT -0500)
Saint Louis Downtown

Weather History for KCPS - August, 2019

Change the Weather History Date:

Saturday, August 24, 2019

  Actual Average Record
Temperature  
Mean Temperature 70 °F -  
Max Temperature 79 °F 81 °F 98 °F (1948)
Min Temperature 62 °F 62 °F 55 °F (2017)
Cooling Degree Days 5    
Growing Degree Days 20 (Base 50)    
Moisture  
Dew Point 59 °F    
Average Humidity 68    
Maximum Humidity 86    
Minimum Humidity 50    
Precipitation  
Precipitation 0.00 in - - ()
Sea Level Pressure  
Sea Level Pressure 30.12 in    
Wind  
Wind Speed 7 mph (ENE)    
Max Wind Speed 16 mph    
Max Gust Speed 23 mph    
Visibility 10 miles    
Events      
Averages and records for this station are not official NWS values.
T = Trace of Precipitation, MM = Missing Value Source: NWS Daily Summary

Daily Weather History Graph

Daily Weather History Graph

Search for Another Location

Airport or City:

Astronomy

Aug. 24, 2019 Rise Set
Actual Time 6:22 AM CDT 7:42 PM CDT
Civil Twilight 5:54 AM CDT 8:10 PM CDT
Nautical Twilight 5:21 AM CDT 8:43 PM CDT
Astronomical Twilight 4:46 AM CDT 9:18 PM CDT
Moon 12:17 AM CDT (8/24) 2:56 PM CDT (8/24)
Length of Visible Light 14h 15m
Length of Day
13h 20m
Last Quarter, 39% of the Moon is Illuminated
Aug 24
Last Quarter
Aug 30
New
Sep 5
First Quarter
Sep 13
Full
Sep 21
Last Quarter

Hourly Weather History & Observations

Time (CDT) Temp. Dew Point Humidity Pressure Visibility Wind Dir Wind Speed Gust Speed Precip Events Conditions
12:53 AM 66.9 °F 60.1 °F 79% 30.12 in 10.0 mi East 5.8 mph - N/A   Clear
1:53 AM 66.0 °F 59.0 °F 78% 30.14 in 10.0 mi NE 6.9 mph - N/A   Clear
2:53 AM 64.0 °F 59.0 °F 84% 30.14 in 10.0 mi ENE 6.9 mph - N/A   Clear
3:53 AM 63.0 °F 57.9 °F 84% 30.15 in 10.0 mi ENE 5.8 mph - N/A   Clear
4:53 AM 62.1 °F 57.0 °F 84% 30.14 in 10.0 mi ENE 6.9 mph - N/A   Clear
5:53 AM 62.1 °F 57.9 °F 86% 30.15 in 10.0 mi NE 3.5 mph - N/A   Clear
6:53 AM 62.1 °F 57.9 °F 86% 30.17 in 10.0 mi ENE 4.6 mph - N/A   Clear
7:53 AM 64.9 °F 59.0 °F 81% 30.17 in 10.0 mi Variable 3.5 mph - N/A   Clear
8:53 AM 68.0 °F 59.0 °F 73% 30.18 in 10.0 mi East 8.1 mph - N/A   Clear
9:53 AM 72.0 °F 59.0 °F 64% 30.16 in 10.0 mi East 9.2 mph - N/A   Clear
10:53 AM 75.0 °F 57.9 °F 55% 30.16 in 10.0 mi East 11.5 mph 20.7 mph N/A   Partly Cloudy
11:53 AM 75.0 °F 55.9 °F 51% 30.14 in 10.0 mi East 16.1 mph - N/A   Partly Cloudy
12:53 PM 75.9 °F 55.9 °F 50% 30.12 in 10.0 mi East 12.7 mph - N/A   Clear
1:53 PM 78.1 °F 57.9 °F 50% 30.11 in 10.0 mi East 11.5 mph 23.0 mph N/A   Clear
2:53 PM 78.1 °F 57.9 °F 50% 30.10 in 10.0 mi East 11.5 mph - N/A   Partly Cloudy
3:53 PM 77.0 °F 57.9 °F 52% 30.09 in 10.0 mi East 11.5 mph - N/A   Clear
4:53 PM 77.0 °F 57.9 °F 52% 30.07 in 10.0 mi ENE 11.5 mph - N/A   Clear
5:53 PM 75.0 °F 59.0 °F 57% 30.07 in 10.0 mi NE 8.1 mph - N/A   Clear
6:53 PM 73.0 °F 59.0 °F 61% 30.07 in 10.0 mi ENE 9.2 mph - N/A   Clear
7:53 PM 70.0 °F 59.0 °F 68% 30.09 in 10.0 mi ENE 4.6 mph - N/A   Clear
8:53 PM 69.1 °F 60.1 °F 73% 30.10 in 10.0 mi ENE 5.8 mph - N/A   Clear
9:53 PM 69.1 °F 60.1 °F 73% 30.09 in 10.0 mi ENE 6.9 mph - N/A   Overcast
10:53 PM 69.1 °F 60.1 °F 73% 30.09 in 10.0 mi ENE 3.5 mph - N/A   Scattered Clouds
11:53 PM 68.0 °F 61.0 °F 78% 30.08 in 10.0 mi ENE 3.5 mph - N/A   Overcast